Location: Red Rock Farm
(35.2100°N, 97.2200°W)
Time: 17:20:16
(UTC-05:00)

Daily predictions for brighter satellites

Satellite Brightness Start Highest point End
(mag) Time Altitude Azimuth Time Altitude Azimuth Time Altitude Azimuth
Cosmos 2297 4.3 20:02:11 10° SSE 20:07:15 35° ESE 20:12:23 10° NE
H-2A R/B 4.0 20:06:51 10° SE 20:10:00 24° ENE 20:13:11 10° NNE
Cosmos 1125 Rocket 3.9 20:11:50 10° S 20:16:40 41° ESE 20:21:32 10° NNE
Cosmos 1707 4.1 20:14:16 10° NNW 20:17:59 45° W 20:21:41 10° SSW
Cosmos 2082 Rocket 3.3 20:18:38 10° N 20:23:20 26° ENE 20:27:52 10° ESE
SeaSat 1 2.8 20:20:12 10° SE 20:24:54 48° ENE 20:29:38 10° NNW
CZ-2C R/B 1.4 20:24:15 10° NNE 20:25:51 34° E 20:27:54 10° SSE
HJ-1C 3.5 20:23:55 10° SSE 20:27:13 55° ENE 20:30:35 10° N
Cosmos 1758 3.7 20:23:50 10° SSE 20:27:34 41° E 20:31:20 10° NNE
Meteor 1-24 Rocket 3.8 20:22:52 10° N 20:28:27 87° W 20:34:13 10° S
ALOS 2.2 20:24:47 10° SSE 20:29:25 73° ENE 20:34:06 10° N
GPS 2-05 Rocket1 2.9 20:29:54 10° WSW 20:33:26 71° SSE 20:36:15 15° E
Cosmos 1953 2.6 20:30:48 10° SSE 20:34:41 47° E 20:38:36 10° NNE
Cosmos 1271 Rocket 4.0 20:32:10 10° SE 20:35:18 22° E 20:38:26 10° NE
SL-27 R/B 3.3 20:33:42 10° NNW 20:37:14 54° WSW 20:40:47 10° S
Helios 1B rocket 3.2 20:36:49 10° NE 20:40:25 29° E 20:44:00 10° SSE
Okean 3 Rocket 3.5 20:38:11 10° N 20:42:34 70° E 20:46:59 10° SSE
IUS-7 SRM-1 4.5 20:44:15 10° S 20:45:19 12° SSE 20:45:19 12° SSE
Abrixas 3.2 20:43:16 10° NW 20:45:56 35° NNE 20:46:58 25° ENE
Cosmos 1076 Rocket 3.7 20:42:39 10° N 20:46:45 46° E 20:50:49 10° SSE
Tiangong 1 2.0 20:44:20 10° WNW 20:47:06 38° SSW 20:48:52 18° SSE
SWAS 4.5 20:43:32 10° S 20:47:43 56° ESE 20:51:56 10° NNE
Meteor 1-29 4.0 20:45:44 10° NE 20:48:40 25° E 20:49:25 23° ESE
Cosmos 1674 3.5 20:46:42 10° NNE 20:50:06 30° E 20:51:30 23° ESE
CZ-4B DEB 4.5 20:52:56 17° NE 20:52:56 17° NE 20:54:27 10° NNE
Helios 1A 3.5 20:53:10 21° SE 20:55:21 37° ENE 20:59:13 10° N
COSMOS 2487 3.1 20:52:36 10° N 20:55:57 37° ENE 20:56:56 30° ESE
Delta 168 4.3 20:54:02 10° SW 20:56:46 18° S 20:57:52 16° SSE
Lacrosse 5 rocket 3.0 20:54:55 10° N 20:57:26 16° NE 20:58:14 15° NE
ISS -3.7 20:56:31 10° SW 20:59:45 72° NW 21:02:04 18° NE
Cosmos 1818 3.5 20:55:49 10° NNW 21:01:16 75° ENE 21:05:09 19° SE
USA 186 2.9 21:04:49 20° NNE 21:04:49 20° NNE 21:05:42 10° N
Cosmos 1269 Rocket 4.0 20:59:24 10° N 21:04:39 62° ENE 21:08:17 20° SSE
GP-B 3.1 21:01:26 10° SSE 21:05:47 59° E 21:10:10 10° N
Meteor 1-4 Rocket 3.4 21:03:30 10° SSW 21:06:53 50° W 21:10:16 10° N
CZ-2D R/B 3.2 21:03:33 10° SSE 21:07:21 89° W 21:11:15 10° NNW
Cosmos 1766 Rocket 3.6 21:03:47 10° N 21:08:14 60° E 21:11:01 22° SSE
H-II Stage 2 2.6 21:07:05 10° SW 21:08:29 22° S 21:08:29 22° S
Cosmos 372 Rocket 4.0 21:04:12 10° SSW 21:09:18 80° WNW 21:14:28 10° NNE
Cosmos-2242 2.8 21:06:36 10° S 21:10:48 68° E 21:15:02 10° NNE
Resurs 01 Rocket 2.3 21:09:18 10° S 21:13:36 56° W 21:17:58 10° NNW
Cosmos 2016 Rocket 4.3 21:08:33 10° SSE 21:14:19 41° E 21:20:02 10° NNE
Cosmos 158 Rocket 3.9 21:13:03 10° NNW 21:18:13 69° ENE 21:20:48 30° SSE
Aurora 2 Rocket 4.2 21:14:01 10° WSW 21:20:13 31° S 21:21:52 26° SSE
USA 215 3.2 21:15:46 10° NE 21:22:14 62° SE 21:28:40 10° SSW
Meteor 1-21 Rocket 4.4 21:16:30 10° N 21:22:23 81° W 21:28:17 10° S
Cosmos 1470 2.9 21:24:51 10° SSW 21:28:49 72° W 21:32:48 10° N
Spot 2 Rocket 4.5 21:24:10 10° S 21:29:02 46° W 21:33:57 10° NNW
Cosmos 1833 Rocket 2.6 21:23:47 10° NNW 21:29:26 84° ENE 21:31:55 35° SSE
Cosmos 2100 Rocket 4.0 21:25:25 10° S 21:31:44 88° W 21:38:08 10° N
Cosmos 1733 3.5 21:28:21 10° SSW 21:32:11 68° W 21:36:03 10° N
Cosmos 1743 Rocket 3.8 21:35:09 10° N 21:38:55 54° NE 21:38:55 54° NE
ATLAS 5 CENTAUR R/B 3.0 21:36:43 10° SW 21:41:06 41° NW 21:45:51 10° NNE
Cosmos 1340 Rocket 2.9 21:39:20 10° N 21:42:57 71° NNW 21:42:57 71° NNW
SJ-11-01 4.1 21:46:37 77° SSE 21:46:58 87° ENE 21:51:43 10° NNW
Envisat 2.9 21:45:56 54° S 21:47:08 87° W 21:52:13 10° NNW
Cosmos 1802 Rocket 4.1 21:48:15 10° SSW 21:54:20 74° W 22:00:31 10° N
Gblst 52 Del rocket 4.0 21:49:06 10° SW 21:55:11 82° SE 21:55:48 71° ENE
H-2A R/B 4.3 22:02:14 13° NNE 22:02:14 13° NNE 22:03:00 10° NNE
ERS-1 Rocket 3.5 22:03:18 50° NNE 22:03:18 50° NNE 22:07:09 10° N
Cosmos 2082 Rocket 3.3 22:02:15 10° NW 22:07:28 39° WSW 22:09:47 27° SSW
Meteor 1-11 4.5 22:07:03 10° N 22:11:31 58° N 22:11:31 58° N
Lacrosse 5 rocket 4.1 22:33:14 10° NW 22:33:58 15° NW 22:33:58 15° NW
USA 215 4.5 22:59:06 10° NNE 23:04:57 36° NW 23:10:47 10° W
